This is the latest recevied weather packets stored in our database for station/object KR8N. If no packets are shown the sender has not sent any weather packets the latest 10 day(s).
| Time | Temp. | Humidity | Pressure | Rain* | Wind** | Luminosity | Snow |
|---|---|---|---|---|---|---|---|
| 1777570156 | 12.78° C | 47% | 1016.7 hPa | 0 mm | - | 225 W/m² | - |
| 1777569853 | 12.78° C | 44% | 1016.8 hPa | 0 mm | - | 1126 W/m² | - |
| 1777569549 | 12.22° C | 46% | 1016.7 hPa | 0 mm | - | 1073 W/m² | - |
| 1777569245 | 12.22° C | 47% | 1016.4 hPa | 0 mm | - | 374 W/m² | - |
| 1777568941 | 12.22° C | 49% | 1016.8 hPa | 0 mm | - | 1121 W/m² | - |
| 1777568638 | 12.78° C | 44% | 1016.8 hPa | 0 mm | - | 1006 W/m² | - |
| 1777568336 | 11.67° C | 47% | 1016.9 hPa | 0 mm | - | 1052 W/m² | - |
| 1777568032 | 12.22° C | 49% | 1016.8 hPa | 0 mm | - | 256 W/m² | - |
| 1777567729 | 12.22° C | 45% | 1016.6 hPa | 0 mm | - | 1077 W/m² | - |
| 1777567425 | 12.22° C | 49% | 1016.8 hPa | 0 mm | - | 1000 W/m² | - |
| 1777567123 | 11.67° C | 49% | 1016.9 hPa | 0 mm | - | 966 W/m² | - |
| 1777566821 | 11.67° C | 52% | 1016.7 hPa | 0 mm | - | 897 W/m² | - |
| 1777566519 | 11.11° C | 53% | 1017 hPa | 0 mm | - | 1016 W/m² | - |
| 1777566216 | 12.22° C | 49% | 1017.1 hPa | 0 mm | - | 268 W/m² | - |
| 1777565913 | 11.67° C | 55% | 1016.8 hPa | 0 mm | - | 1006 W/m² | - |
| 1777565608 | 11.67° C | 50% | 1016.7 hPa | 0 mm | - | 310 W/m² | - |
| 1777565305 | 10.56° C | 49% | 1016.8 hPa | 0 mm | - | 968 W/m² | - |
| 1777565001 | 11.11° C | 51% | 1016.8 hPa | 0 mm | - | 225 W/m² | - |
| 1777564697 | 11.11° C | 50% | 1016.9 hPa | 0 mm | - | 988 W/m² | - |
| 1777564397 | 11.67° C | 50% | 1016.9 hPa | 0 mm | - | 492 W/m² | - |
| 1777564094 | 11.67° C | 54% | 1017 hPa | 0 mm | - | 972 W/m² | - |
| 1777563789 | 11.67° C | 54% | 1016.9 hPa | 0 mm | - | 862 W/m² | - |
| 1777563486 | 11.67° C | 52% | 1016.9 hPa | 0 mm | - | 881 W/m² | - |
| 1777563185 | 11.67° C | 52% | 1016.9 hPa | 0 mm | - | 927 W/m² | - |
| 1777562882 | 11.11° C | 54% | 1017.1 hPa | 0 mm | - | 830 W/m² | - |
* Rain latest hour (hover to see other rain measurements)
** Current wind speed in m/s (hover to see current wind gust speed)